TimeCST,TemperatureF,Dew PointF,Humidity,Sea Level PressureIn,VisibilityMPH,Wind Direction,Wind SpeedMPH,Gust SpeedMPH,PrecipitationIn,Events,Conditions,WindDirDegrees,DateUTC
12:52 AM,14.0,10.0,84,30.65,10.0,Calm,Calm,-,N/A,,Clear,0,2013-12-12 06:52:00
1:52 AM,12.9,8.1,81,30.64,10.0,Calm,Calm,-,N/A,,Clear,0,2013-12-12 07:52:00
2:52 AM,12.0,8.1,84,30.63,10.0,Calm,Calm,-,N/A,,Clear,0,2013-12-12 08:52:00
3:52 AM,10.9,8.1,88,30.63,10.0,Calm,Calm,-,N/A,,Clear,0,2013-12-12 09:52:00
4:52 AM,10.0,7.0,87,30.61,10.0,Calm,Calm,-,N/A,,Clear,0,2013-12-12 10:52:00
5:52 AM,9.0,6.1,88,30.59,10.0,SSE,4.6,-,N/A,,Clear,150,2013-12-12 11:52:00
6:52 AM,10.0,7.0,87,30.59,10.0,South,3.5,-,N/A,,Clear,170,2013-12-12 12:52:00
7:52 AM,12.9,9.0,84,30.59,10.0,South,4.6,-,N/A,,Clear,180,2013-12-12 13:52:00
8:52 AM,19.9,15.1,81,30.58,10.0,South,5.8,-,N/A,,Clear,180,2013-12-12 14:52:00
9:52 AM,28.0,19.0,69,30.59,10.0,South,12.7,-,N/A,,Clear,190,2013-12-12 15:52:00
10:52 AM,34.0,18.0,52,30.58,10.0,South,11.5,-,N/A,,Clear,190,2013-12-12 16:52:00
11:52 AM,39.9,19.0,43,30.53,10.0,SW,12.7,18.4,N/A,,Clear,220,2013-12-12 17:52:00
12:52 PM,42.1,21.0,43,30.48,10.0,South,11.5,-,N/A,,Clear,190,2013-12-12 18:52:00
1:52 PM,45.0,23.0,42,30.45,10.0,SSW,11.5,-,N/A,,Clear,200,2013-12-12 19:52:00
2:52 PM,46.0,23.0,40,30.41,10.0,South,12.7,-,N/A,,Clear,190,2013-12-12 20:52:00
3:52 PM,44.1,24.1,45,30.38,10.0,South,12.7,-,N/A,,Clear,180,2013-12-12 21:52:00
4:52 PM,39.0,25.0,57,30.38,10.0,South,11.5,-,N/A,,Clear,170,2013-12-12 22:52:00
5:52 PM,36.0,25.0,64,30.37,10.0,South,10.4,-,N/A,,Clear,170,2013-12-12 23:52:00
6:52 PM,33.1,25.0,72,30.36,10.0,South,9.2,-,N/A,,Clear,180,2013-12-13 00:52:00
7:52 PM,30.9,24.1,76,30.35,10.0,South,5.8,-,N/A,,Clear,180,2013-12-13 01:52:00
8:52 PM,30.0,24.1,79,30.33,10.0,South,6.9,-,N/A,,Clear,170,2013-12-13 02:52:00
9:52 PM,30.9,25.0,79,30.30,10.0,South,9.2,-,N/A,,Clear,180,2013-12-13 03:52:00
10:52 PM,30.9,25.0,79,30.28,10.0,South,9.2,-,N/A,,Clear,170,2013-12-13 04:52:00
11:52 PM,32.0,26.1,79,30.25,9.0,South,9.2,-,N/A,,Clear,180,2013-12-13 05:52:00